Location: Unspecified
(33.4390°N, 83.7350°W)
Time: 17:42:40
(UTC-04:00)

Daily predictions for brighter satellites

Satellite Brightness Start Highest point End
(mag) Time Altitude Azimuth Time Altitude Azimuth Time Altitude Azimuth
FENGYUN 3A 3.7 20:32:44 10° SSE 20:38:04 78° ENE 20:43:26 10° N
USA 267 3.9 20:39:22 10° NE 20:45:49 63° NW 20:52:15 10° WSW
Nadezhda 4 Rocket 4.3 20:40:46 10° N 20:47:04 76° W 20:53:21 10° S
Cosmos 1869 Rocket 4.1 20:51:54 10° NNW 20:56:22 66° W 21:00:45 10° S
Cosmos 1634 Rocket 4.0 20:50:17 10° S 20:56:34 86° E 21:02:55 10° N
Cosmos 2263 Rocket 2.9 20:55:35 10° N 21:00:40 35° ENE 21:05:10 13° SE
Spot 2 Rocket 3.5 20:55:47 10° SSE 21:00:50 69° ENE 21:05:54 10° N
Cosmos 1092 Rocket 4.2 20:54:32 10° N 21:00:54 84° W 21:07:14 10° S
Intelsat 5-1 Rocket 3.5 21:00:42 10° SSW 21:01:32 11° S 21:02:16 10° SSE
Cosmos 1503 Rocket 4.0 20:59:37 10° NNW 21:04:50 69° ENE 21:09:59 10° SSE
USA 186 2.0 21:02:56 13° SE 21:05:10 39° ENE 21:07:56 10° N
Cosmos 1939 Rocket 4.3 21:03:23 14° ESE 21:05:34 20° ENE 21:08:33 10° NNE
Resurs 1-3 3.5 21:02:25 10° SSE 21:06:48 76° ENE 21:11:11 10° N
Cosmos 2322 Rocket 2.9 21:02:48 10° SSW 21:08:18 58° WNW 21:13:51 10° NNE
Meteor 2-20 4.5 21:03:58 10° N 21:10:07 90° W 21:16:16 10° S
Cosmos 1354 Rocket 4.0 21:06:06 10° NNW 21:11:22 81° ENE 21:16:36 10° SSE
Atlas Centaur 2 2.7 21:06:25 10° WSW 21:12:33 65° S 21:19:23 13° E
H-2A R/B 3.6 21:11:49 10° S 21:15:37 51° W 21:19:23 10° NNW
Cosmos 2360 Rocket 2.2 21:10:28 10° S 21:15:59 58° ESE 21:21:32 10° NNE
Cosmos 220 Rocket 4.2 21:11:47 10° NNW 21:16:14 74° WSW 21:20:38 10° S
COSMOS 2428 3.7 21:13:50 10° SSE 21:18:18 24° ESE 21:22:48 10° NE
Cosmos 1825 2.1 21:15:38 10° N 21:19:26 84° E 21:23:14 10° S
Intercosmos 25 Rocket 3.1 21:16:22 10° S 21:19:30 79° W 21:23:22 10° N
Envisat 3.4 21:17:09 15° SE 21:21:04 45° ENE 21:25:53 10° N
Cosmos 1655 Rocket 4.0 21:16:52 10° N 21:23:14 67° E 21:29:30 10° SSE
CZ-4B DEB 3.5 21:22:33 27° ESE 21:23:15 30° ENE 21:25:59 10° N
Meteor 1-29 3.0 21:21:46 10° NNE 21:25:10 54° E 21:28:30 10° S
Cosmos 2242 Rocket 4.3 21:20:51 10° SSW 21:25:17 57° W 21:29:42 10° N
Lacrosse 4 Rocket 1.9 21:23:17 10° NNW 21:27:37 63° WSW 21:31:26 13° S
Cosmos 1408 2.8 21:24:27 10° NNW 21:28:06 68° W 21:31:42 10° S
Cosmos 1867 4.5 21:23:24 10° N 21:28:18 33° NE 21:30:53 22° E
Helios 1B rocket 2.3 21:24:51 10° NNE 21:28:58 83° ESE 21:33:03 10° S
Milstar 3 3.3 21:21:05 10° W 21:29:37 52° SSW 21:33:52 22° SE
ATLAS 5 CENTAUR R/B 2.9 21:26:09 10° NNW 21:32:01 45° NE 21:35:40 24° ESE
Cosmos 2279 Rocket 4.1 21:26:44 10° S 21:32:58 84° W 21:39:14 10° N
Cosmos 2322 3.6 21:27:59 10° S 21:33:39 71° ESE 21:39:21 10° NNE
SEDSat Delta rocket 3.4 21:29:43 10° W 21:34:42 72° S 21:37:59 25° ESE
SL-16 R/B 4.1 21:34:08 10° SW 21:39:09 32° WNW 21:44:11 10° N
ERS-1 Rocket 3.8 21:42:02 28° ESE 21:43:27 33° ENE 21:47:56 10° N
Sakura Rocket 3.3 21:42:23 10° WSW 21:45:53 40° S 21:46:24 38° SSE
Resurs 01 Rocket 3.5 21:43:58 10° SSW 21:47:49 29° W 21:51:42 10° NW
Cosmos 1428 Rocket 4.4 21:44:04 10° N 21:50:11 85° W 21:55:34 14° S
Centaur AC-42 3.9 21:29:14 10° W 21:50:15 35° SSW 21:53:32 23° SSE
Cosmos 2333 4.4 21:52:03 19° S 21:55:54 48° ESE 22:01:25 10° NNE
NOSS 3-1 (C) 3.6 21:54:39 31° SSE 21:56:23 39° ESE 22:01:59 10° NE
Cosmos 2333 Rocket 3.8 22:00:04 19° ENE 22:00:04 19° ENE 22:02:14 10° NE
YAOGAN 6 2.9 21:58:12 49° ENE 21:58:12 49° ENE 22:01:30 10° N
SPOT 5 4.1 21:59:59 24° ENE 21:59:59 24° ENE 22:03:26 10° NNE
Cosmos 1844 Rocket 3.9 21:57:38 10° N 22:02:06 24° ENE 22:02:44 24° ENE
Cosmos 1908 Rocket 3.4 21:57:52 10° N 22:02:12 72° E 22:02:59 56° SE
USA 229 DEB 3.9 21:55:37 10° SW 22:02:24 72° WNW 22:09:18 10° NNE
USA 229 3.9 21:55:44 10° SW 22:02:30 73° WNW 22:09:25 10° NNE
OAO 3 Rocket 3.1 22:01:51 10° W 22:06:44 76° SSW 22:07:40 57° SE
Sich 1 Rocket 3.5 22:04:08 10° N 22:08:38 86° E 22:09:37 55° SSE
Meteor 2-10 Rocket 4.3 22:06:52 10° SSW 22:12:36 59° W 22:18:18 10° N
NOSS 3-1 (A) 4.4 22:15:19 28° ENE 22:15:19 28° ENE 22:18:38 10° NE
Cosmos 1782 Rocket 3.7 22:12:30 10° N 22:16:24 55° NE 22:16:24 55° NE
Cosmos 2219 Rocket 2.6 22:20:01 43° ENE 22:20:01 43° ENE 22:24:27 10° NNE
Okean 1-7 2.9 22:21:00 83° ENE 22:21:00 83° ENE 22:25:20 10° N
Cosmos 1777 Rocket 4.3 22:16:43 10° N 22:21:49 49° ENE 22:21:49 49° ENE
Cosmos 1782 4.5 22:30:21 26° NNE 22:30:21 26° NNE 22:32:14 10° NNE
Okean 2 Rocket 3.7 22:27:27 10° N 22:30:55 47° NNE 22:30:55 47° NNE
Terra 3.9 22:45:02 16° NE 22:45:02 16° NE 22:46:33 10° NNE
Nimbus 7 Rocket 4.3 22:37:21 10° NNE 22:43:18 73° ESE 22:43:21 73° ESE
Cosmos 2263 Rocket 3.9 22:39:54 10° NW 22:44:20 25° WSW 22:46:54 18° SW
Cosmos 968 Rocket 4.5 22:43:24 10° NNW 22:48:14 40° WSW 22:49:06 37° SW
MetOp-B 4.4 22:59:17 63° W 22:59:17 63° W 23:04:26 10° NNW
USA 234 3.1 22:59:28 79° SSE 22:59:56 87° SW 23:06:30 10° NW
Atlas Centaur 2 2.8 22:55:03 10° W 23:02:01 67° S 23:02:01 67° S
COSMOS 2428 4.0 22:57:03 10° SW 23:02:17 37° WNW 23:07:34 10° N
H-2A R/B 3.0 23:09:10 40° N 23:09:10 40° N 23:12:19 10° N
MOS 1-B Rocket 4.0 23:09:36 72° WNW 23:09:36 72° WNW 23:14:54 10° NNW
NOSS 0 Rocket 4.2 23:16:17 62° N 23:16:17 62° N 23:21:23 10° NNE
ATLAS 5 CENTAUR R/B 3.8 23:11:18 10° NW 23:16:35 29° WSW 23:17:15 28° WSW
Cosmos 1844 4.3 23:12:13 10° NNW 23:16:28 53° NNW 23:16:28 53° NNW
ARGOS 3.9 23:19:00 49° WNW 23:19:00 49° WNW 23:23:23 10° NNW
SeaSat 1 3.7 23:24:45 38° NNW 23:24:45 38° NNW 23:27:46 10° NNW
H-2A R/B 4.5 23:31:01 19° N 23:31:01 19° N 23:32:19 10° N
Cosmos 2237 Rocket 3.4 23:40:20 38° N 23:40:20 38° N 23:43:56 10° NNE
Cosmos 2333 Rocket 3.4 23:41:58 39° WNW 23:41:58 39° WNW 23:47:05 10° N
Cosmos 1844 Rocket 4.2 23:40:56 10° NW 23:44:25 31° WNW 23:44:25 31° WNW
Cosmos 2278 Rocket 3.5 23:42:12 10° NNW 23:45:29 36° NNW 23:45:29 36° NNW
